Year,Month,Day,Hour,Minute,Value (Times are PST for temperature in C)
2020,01,31,00,00,6.90
2020,01,31,00,01,6.90
2020,01,31,00,02,6.90
2020,01,31,00,03,6.90
2020,01,31,00,04,6.90
2020,01,31,00,05,7.00
2020,01,31,00,06,7.00
2020,01,31,00,07,7.00
2020,01,31,00,08,7.10
2020,01,31,00,09,7.10
2020,01,31,00,10,7.10
2020,01,31,00,11,7.10
2020,01,31,00,12,7.10
2020,01,31,00,13,7.10
2020,01,31,00,14,7.10
2020,01,31,00,15,7.10
2020,01,31,00,16,7.10
2020,01,31,00,17,7.10
2020,01,31,00,18,7.10
2020,01,31,00,19,7.00
2020,01,31,00,20,7.10
2020,01,31,00,21,7.10
2020,01,31,00,22,7.00
2020,01,31,00,23,7.00
2020,01,31,00,24,7.00
2020,01,31,00,25,7.00
2020,01,31,00,26,7.00
2020,01,31,00,27,7.00
2020,01,31,00,28,7.00
2020,01,31,00,29,7.00
2020,01,31,00,30,7.00
2020,01,31,00,31,7.00
2020,01,31,00,32,7.00
2020,01,31,00,33,7.00
2020,01,31,00,34,7.00
2020,01,31,00,35,7.00
2020,01,31,00,36,7.00
2020,01,31,00,37,7.00
2020,01,31,00,38,7.00
2020,01,31,00,39,7.00
2020,01,31,00,40,7.10
2020,01,31,00,41,7.10
2020,01,31,00,42,7.20
2020,01,31,00,43,7.40
2020,01,31,00,44,7.50
2020,01,31,00,45,7.50
2020,01,31,00,46,7.60
2020,01,31,00,47,7.60
2020,01,31,00,48,7.60
2020,01,31,00,49,7.70
2020,01,31,00,50,7.60
2020,01,31,00,51,7.60
2020,01,31,00,52,7.60
2020,01,31,00,53,7.60
2020,01,31,00,54,7.60
2020,01,31,00,55,7.60
2020,01,31,00,56,7.60
2020,01,31,00,57,7.60
2020,01,31,00,58,7.60
2020,01,31,00,59,7.60
2020,01,31,01,00,7.60
2020,01,31,01,01,7.60
2020,01,31,01,02,7.60
2020,01,31,01,03,7.50
2020,01,31,01,04,7.50
2020,01,31,01,05,7.50
2020,01,31,01,06,7.40
2020,01,31,01,07,7.40
2020,01,31,01,08,7.40
2020,01,31,01,09,7.40
2020,01,31,01,10,7.40
2020,01,31,01,11,7.40
2020,01,31,01,12,7.30
2020,01,31,01,13,7.30
2020,01,31,01,14,7.30
2020,01,31,01,15,7.30
2020,01,31,01,16,7.30
2020,01,31,01,17,7.40
2020,01,31,01,18,7.50
2020,01,31,01,19,7.60
2020,01,31,01,20,7.60
2020,01,31,01,21,7.70
2020,01,31,01,22,7.70
2020,01,31,01,23,7.80
2020,01,31,01,24,7.80
2020,01,31,01,25,7.90
2020,01,31,01,26,7.90
2020,01,31,01,27,7.90
2020,01,31,01,28,8.00
2020,01,31,01,29,8.00
2020,01,31,01,30,8.00
2020,01,31,01,31,8.10
2020,01,31,01,32,8.10
2020,01,31,01,33,8.10
2020,01,31,01,34,8.20
2020,01,31,01,35,8.20
2020,01,31,01,36,8.20
2020,01,31,01,37,8.20
2020,01,31,01,38,8.20
2020,01,31,01,39,8.30
2020,01,31,01,40,8.30
2020,01,31,01,41,8.30
2020,01,31,01,42,8.30
2020,01,31,01,43,8.30
2020,01,31,01,44,8.30
2020,01,31,01,45,8.30
2020,01,31,01,46,8.30
2020,01,31,01,47,8.30
2020,01,31,01,48,8.30
2020,01,31,01,49,8.30
2020,01,31,01,50,8.30
2020,01,31,01,51,8.30
2020,01,31,01,52,8.30
2020,01,31,01,53,8.30
2020,01,31,01,54,8.30
2020,01,31,01,55,8.30
2020,01,31,01,56,8.40
2020,01,31,01,57,8.40
2020,01,31,01,58,8.40
2020,01,31,01,59,8.40
2020,01,31,02,00,8.40
2020,01,31,02,01,8.40
2020,01,31,02,02,8.40
2020,01,31,02,03,8.40
2020,01,31,02,04,8.40
2020,01,31,02,05,8.50
2020,01,31,02,06,8.40
2020,01,31,02,07,8.40
2020,01,31,02,08,8.50
2020,01,31,02,09,8.50
2020,01,31,02,10,8.40
2020,01,31,02,11,8.50
2020,01,31,02,12,8.50
2020,01,31,02,13,8.50
2020,01,31,02,14,8.50
2020,01,31,02,15,8.50
2020,01,31,02,16,8.50
2020,01,31,02,17,8.40
2020,01,31,02,18,8.40
2020,01,31,02,19,8.40
2020,01,31,02,20,8.40
2020,01,31,02,21,8.40
2020,01,31,02,22,8.40
2020,01,31,02,23,8.40
2020,01,31,02,24,8.40
2020,01,31,02,25,8.40
2020,01,31,02,26,8.40
2020,01,31,02,27,8.40
2020,01,31,02,28,8.40
2020,01,31,02,29,8.40
2020,01,31,02,30,8.40
2020,01,31,02,31,8.40
2020,01,31,02,32,8.40
2020,01,31,02,33,8.40
2020,01,31,02,34,8.40
2020,01,31,02,35,8.40
2020,01,31,02,36,8.40
2020,01,31,02,37,8.40
2020,01,31,02,38,8.40
2020,01,31,02,39,8.40
2020,01,31,02,40,8.40
2020,01,31,02,41,8.40
2020,01,31,02,42,8.40
2020,01,31,02,43,8.40
2020,01,31,02,44,8.40
2020,01,31,02,45,8.40
2020,01,31,02,46,8.40
2020,01,31,02,47,8.40
2020,01,31,02,48,8.40
2020,01,31,02,49,8.40
2020,01,31,02,50,8.40
2020,01,31,02,51,8.40
2020,01,31,02,52,8.40
2020,01,31,02,53,8.40
2020,01,31,02,54,8.40
2020,01,31,02,55,8.40
2020,01,31,02,56,8.40
2020,01,31,02,57,8.40
2020,01,31,02,58,8.40
2020,01,31,02,59,8.40
2020,01,31,03,00,8.40
2020,01,31,03,01,8.40
2020,01,31,03,02,8.40
2020,01,31,03,03,8.40
2020,01,31,03,04,8.40
2020,01,31,03,05,8.40
2020,01,31,03,06,8.40
2020,01,31,03,07,8.40
2020,01,31,03,08,8.40
2020,01,31,03,09,8.40
2020,01,31,03,10,8.40
2020,01,31,03,11,8.40
2020,01,31,03,12,8.40
2020,01,31,03,13,8.50
2020,01,31,03,14,8.50
2020,01,31,03,15,8.50
2020,01,31,03,16,8.50
2020,01,31,03,17,8.50
2020,01,31,03,18,8.50
2020,01,31,03,19,8.50
2020,01,31,03,20,8.50
2020,01,31,03,21,8.50
2020,01,31,03,22,8.60
2020,01,31,03,23,8.60
2020,01,31,03,24,8.60
2020,01,31,03,25,8.60
2020,01,31,03,26,8.60
2020,01,31,03,27,8.60
2020,01,31,03,28,8.60
2020,01,31,03,29,8.60
2020,01,31,03,30,8.60
2020,01,31,03,31,8.60
2020,01,31,03,32,8.70
2020,01,31,03,33,8.70
2020,01,31,03,34,8.70
2020,01,31,03,35,8.70
2020,01,31,03,36,8.70
2020,01,31,03,37,8.70
2020,01,31,03,38,8.70
2020,01,31,03,39,8.70
2020,01,31,03,40,8.70
2020,01,31,03,41,8.70
2020,01,31,03,42,8.70
2020,01,31,03,43,8.70
2020,01,31,03,44,8.70
2020,01,31,03,45,8.60
2020,01,31,03,46,8.60
2020,01,31,03,47,8.60
2020,01,31,03,48,8.60
2020,01,31,03,49,8.60
2020,01,31,03,50,8.60
2020,01,31,03,51,8.60
2020,01,31,03,52,8.50
2020,01,31,03,53,8.50
2020,01,31,03,54,8.50
2020,01,31,03,55,8.50
2020,01,31,03,56,8.50
2020,01,31,03,57,8.50
2020,01,31,03,58,8.50
2020,01,31,03,59,8.50
2020,01,31,04,00,8.40
2020,01,31,04,01,8.40
2020,01,31,04,02,8.40
2020,01,31,04,03,8.40
2020,01,31,04,04,8.40
2020,01,31,04,05,8.40
2020,01,31,04,06,8.40
2020,01,31,04,07,8.30
2020,01,31,04,08,8.30
2020,01,31,04,09,8.30
2020,01,31,04,10,8.30
2020,01,31,04,11,8.30
2020,01,31,04,12,8.30
2020,01,31,04,13,8.20
2020,01,31,04,14,8.20
2020,01,31,04,15,8.20
2020,01,31,04,16,8.10
2020,01,31,04,17,8.10
2020,01,31,04,18,8.10
2020,01,31,04,19,8.10
2020,01,31,04,20,8.10
2020,01,31,04,21,8.10
2020,01,31,04,22,8.10
2020,01,31,04,23,8.10
2020,01,31,04,24,8.10
2020,01,31,04,25,8.10
2020,01,31,04,26,8.10
2020,01,31,04,27,8.10
2020,01,31,04,28,8.10
2020,01,31,04,29,8.20
2020,01,31,04,30,8.10
2020,01,31,04,31,8.20
2020,01,31,04,32,8.20
2020,01,31,04,33,8.20
2020,01,31,04,34,8.20
2020,01,31,04,35,8.20
2020,01,31,04,36,8.20
2020,01,31,04,37,8.20
2020,01,31,04,38,8.20
2020,01,31,04,39,8.20
2020,01,31,04,40,8.20
2020,01,31,04,41,8.20
2020,01,31,04,42,8.20
2020,01,31,04,43,8.20
2020,01,31,04,44,8.20
2020,01,31,04,45,8.20
2020,01,31,04,46,8.20
2020,01,31,04,47,8.20
2020,01,31,04,48,8.20
2020,01,31,04,49,8.20
2020,01,31,04,50,8.20
2020,01,31,04,51,8.20
2020,01,31,04,52,8.20
2020,01,31,04,53,8.20
2020,01,31,04,54,8.20
2020,01,31,04,55,8.20
2020,01,31,04,56,8.20
2020,01,31,04,57,8.20
2020,01,31,04,58,8.20
2020,01,31,04,59,8.20
2020,01,31,05,00,8.20
2020,01,31,05,01,8.20
2020,01,31,05,02,8.20
2020,01,31,05,03,8.20
2020,01,31,05,04,8.20
2020,01,31,05,05,8.20
2020,01,31,05,06,8.20
2020,01,31,05,07,8.20
2020,01,31,05,08,8.20
2020,01,31,05,09,8.20
2020,01,31,05,10,8.20
2020,01,31,05,11,8.20
2020,01,31,05,12,8.20
2020,01,31,05,13,8.20
2020,01,31,05,14,8.20
2020,01,31,05,15,8.20
2020,01,31,05,16,8.20
2020,01,31,05,17,8.20
2020,01,31,05,18,8.10
2020,01,31,05,19,8.20
2020,01,31,05,20,8.10
2020,01,31,05,21,8.10
2020,01,31,05,22,8.10
2020,01,31,05,23,8.10
2020,01,31,05,24,8.10
2020,01,31,05,25,8.10
2020,01,31,05,26,8.10
2020,01,31,05,27,8.10
2020,01,31,05,28,8.10
2020,01,31,05,29,8.10
2020,01,31,05,30,8.10
2020,01,31,05,31,8.10
2020,01,31,05,32,8.10
2020,01,31,05,33,8.10
2020,01,31,05,34,8.00
2020,01,31,05,35,8.10
2020,01,31,05,36,8.10
2020,01,31,05,37,8.00
2020,01,31,05,38,8.00
2020,01,31,05,39,8.00
2020,01,31,05,40,8.00
2020,01,31,05,41,8.10
2020,01,31,05,42,8.00
2020,01,31,05,43,8.10
2020,01,31,05,44,8.10
2020,01,31,05,45,8.00
2020,01,31,05,46,8.00
2020,01,31,05,47,8.00
2020,01,31,05,48,8.00
2020,01,31,05,49,8.00
2020,01,31,05,50,8.00
2020,01,31,05,51,8.00
2020,01,31,05,52,8.00
2020,01,31,05,53,8.00
2020,01,31,05,54,8.00
2020,01,31,05,55,8.00
2020,01,31,05,56,8.00
2020,01,31,05,57,8.00
2020,01,31,05,58,8.00
2020,01,31,05,59,8.00
2020,01,31,06,00,8.00
2020,01,31,06,01,8.00
2020,01,31,06,02,8.10
2020,01,31,06,03,8.10
2020,01,31,06,04,8.10
2020,01,31,06,05,8.10
2020,01,31,06,06,8.10
2020,01,31,06,07,8.10
2020,01,31,06,08,8.10
2020,01,31,06,09,8.20
2020,01,31,06,10,8.20
2020,01,31,06,11,8.20
2020,01,31,06,12,8.20
2020,01,31,06,13,8.20
2020,01,31,06,14,8.20
2020,01,31,06,15,8.20
2020,01,31,06,16,8.20
2020,01,31,06,17,8.20
2020,01,31,06,18,8.20
2020,01,31,06,19,8.20
2020,01,31,06,20,8.20
2020,01,31,06,21,8.20
2020,01,31,06,22,8.20
2020,01,31,06,23,8.10
2020,01,31,06,24,8.10
2020,01,31,06,25,8.10
2020,01,31,06,26,8.10
2020,01,31,06,27,8.10
2020,01,31,06,28,8.10
2020,01,31,06,29,8.10
2020,01,31,06,30,8.10
2020,01,31,06,31,8.10
2020,01,31,06,32,8.10
2020,01,31,06,33,8.10
2020,01,31,06,34,8.10
2020,01,31,06,35,8.10
2020,01,31,06,36,8.10
2020,01,31,06,37,8.10
2020,01,31,06,38,8.10
2020,01,31,06,39,8.10
2020,01,31,06,40,8.10
2020,01,31,06,41,8.10
2020,01,31,06,42,8.10
2020,01,31,06,43,8.10
2020,01,31,06,44,8.10
2020,01,31,06,45,8.10
2020,01,31,06,46,8.10
2020,01,31,06,47,8.10
2020,01,31,06,48,8.10
2020,01,31,06,49,8.10
2020,01,31,06,50,8.10
2020,01,31,06,51,8.10
2020,01,31,06,52,8.10
2020,01,31,06,53,8.00
2020,01,31,06,54,8.10
2020,01,31,06,55,8.10
2020,01,31,06,56,8.10
2020,01,31,06,57,8.10
2020,01,31,06,58,8.10
2020,01,31,06,59,8.10
2020,01,31,07,00,8.10
2020,01,31,07,01,8.10
2020,01,31,07,02,8.10
2020,01,31,07,03,8.10
2020,01,31,07,04,8.10
2020,01,31,07,05,8.10
2020,01,31,07,06,8.10
2020,01,31,07,07,8.10
2020,01,31,07,08,8.10
2020,01,31,07,09,8.10
2020,01,31,07,10,8.10
2020,01,31,07,11,8.20
2020,01,31,07,12,8.20
2020,01,31,07,13,8.20
2020,01,31,07,14,8.20
2020,01,31,07,15,8.10
2020,01,31,07,16,8.10
2020,01,31,07,17,8.10
2020,01,31,07,18,8.10
2020,01,31,07,19,8.10
2020,01,31,07,20,8.10
2020,01,31,07,21,8.10
2020,01,31,07,22,8.10
2020,01,31,07,23,8.10
2020,01,31,07,24,8.10
2020,01,31,07,25,8.10
2020,01,31,07,26,8.10
2020,01,31,07,27,8.10
2020,01,31,07,28,8.10
2020,01,31,07,29,8.10
2020,01,31,07,30,8.10
2020,01,31,07,31,8.10
2020,01,31,07,32,8.10
2020,01,31,07,33,8.10
2020,01,31,07,34,8.10
2020,01,31,07,35,8.10
2020,01,31,07,36,8.10
2020,01,31,07,37,8.10
2020,01,31,07,38,8.10
2020,01,31,07,39,8.10
2020,01,31,07,40,8.10
2020,01,31,07,41,8.00
2020,01,31,07,42,8.10
2020,01,31,07,43,8.00
2020,01,31,07,44,8.10
2020,01,31,07,45,8.10
2020,01,31,07,46,8.10
2020,01,31,07,47,8.10
2020,01,31,07,48,8.10
2020,01,31,07,49,8.10
2020,01,31,07,50,8.10
2020,01,31,07,51,8.10
2020,01,31,07,52,8.10
2020,01,31,07,53,8.10
2020,01,31,07,54,8.10
2020,01,31,07,55,8.10
2020,01,31,07,56,8.10
2020,01,31,07,57,8.10
2020,01,31,07,58,8.10
2020,01,31,07,59,8.10
2020,01,31,08,00,8.10
2020,01,31,08,01,8.10
2020,01,31,08,02,8.10
2020,01,31,08,03,8.10
2020,01,31,08,04,8.20
2020,01,31,08,05,8.10
2020,01,31,08,06,8.20
2020,01,31,08,07,8.20
2020,01,31,08,08,8.20
2020,01,31,08,09,8.20
2020,01,31,08,10,8.20
2020,01,31,08,11,8.10
2020,01,31,08,12,8.10
2020,01,31,08,13,8.10
2020,01,31,08,14,8.10
2020,01,31,08,15,8.10
2020,01,31,08,16,8.10
2020,01,31,08,17,8.10
2020,01,31,08,18,8.10
2020,01,31,08,19,8.10
2020,01,31,08,20,8.20
2020,01,31,08,21,8.20
2020,01,31,08,22,8.20
2020,01,31,08,23,8.20
2020,01,31,08,24,8.20
2020,01,31,08,25,8.20
2020,01,31,08,26,8.20
2020,01,31,08,27,8.20
2020,01,31,08,28,8.20
2020,01,31,08,29,8.20
2020,01,31,08,30,8.30
2020,01,31,08,31,8.30
2020,01,31,08,32,8.30
2020,01,31,08,33,8.30
2020,01,31,08,34,8.30
2020,01,31,08,35,8.30
2020,01,31,08,36,8.40
2020,01,31,08,37,8.40
2020,01,31,08,38,8.40
2020,01,31,08,39,8.40
2020,01,31,08,40,8.40
2020,01,31,08,41,8.40
2020,01,31,08,42,8.40
2020,01,31,08,43,8.40
2020,01,31,08,44,8.40
2020,01,31,08,45,8.40
2020,01,31,08,46,8.40
2020,01,31,08,47,8.40
2020,01,31,08,48,8.40
2020,01,31,08,49,8.40
2020,01,31,08,50,8.40
2020,01,31,08,51,8.30
2020,01,31,08,52,8.30
2020,01,31,08,53,8.40
2020,01,31,08,54,8.40
2020,01,31,08,55,8.30
2020,01,31,08,56,8.40
2020,01,31,08,57,8.40
2020,01,31,08,58,8.30
2020,01,31,08,59,8.40
2020,01,31,09,00,8.30
2020,01,31,09,01,8.30
2020,01,31,09,02,8.30
2020,01,31,09,03,8.30
2020,01,31,09,04,8.30
2020,01,31,09,05,8.30
2020,01,31,09,06,8.30
2020,01,31,09,07,8.30
2020,01,31,09,08,8.30
2020,01,31,09,09,8.30
2020,01,31,09,10,8.30
2020,01,31,09,11,8.30
2020,01,31,09,12,8.30
2020,01,31,09,13,8.30
2020,01,31,09,14,8.40
2020,01,31,09,15,8.40
2020,01,31,09,16,8.40
2020,01,31,09,17,8.40
2020,01,31,09,18,8.40
2020,01,31,09,19,8.40
2020,01,31,09,20,8.40
2020,01,31,09,21,8.40
2020,01,31,09,22,8.40
2020,01,31,09,23,8.40
2020,01,31,09,24,8.40
2020,01,31,09,25,8.40
2020,01,31,09,26,8.40
2020,01,31,09,27,8.40
2020,01,31,09,28,8.40
2020,01,31,09,29,8.40
2020,01,31,09,30,8.40
2020,01,31,09,31,8.40
2020,01,31,09,32,8.40
2020,01,31,09,33,8.30
2020,01,31,09,34,8.30
2020,01,31,09,35,8.30
2020,01,31,09,36,8.30
2020,01,31,09,37,8.40
2020,01,31,09,38,8.30
2020,01,31,09,39,8.40
2020,01,31,09,40,8.40
2020,01,31,09,41,8.40
2020,01,31,09,42,8.40
2020,01,31,09,43,8.40
2020,01,31,09,44,8.50
2020,01,31,09,45,8.50
2020,01,31,09,46,8.50
2020,01,31,09,47,8.50
2020,01,31,09,48,8.50
2020,01,31,09,49,8.60
2020,01,31,09,50,8.60
2020,01,31,09,51,8.70
2020,01,31,09,52,8.70
2020,01,31,09,53,8.70
2020,01,31,09,54,8.70
2020,01,31,09,55,8.70
2020,01,31,09,56,8.70
2020,01,31,09,57,8.70
2020,01,31,09,58,8.70
2020,01,31,09,59,8.60
2020,01,31,10,00,8.60
2020,01,31,10,01,8.60
2020,01,31,10,02,8.60
2020,01,31,10,03,8.60
2020,01,31,10,04,8.60
2020,01,31,10,05,8.60
2020,01,31,10,06,8.60
2020,01,31,10,07,8.60
2020,01,31,10,08,8.60
2020,01,31,10,09,8.60
2020,01,31,10,10,8.60
2020,01,31,10,11,8.60
2020,01,31,10,12,8.60
2020,01,31,10,13,8.60
2020,01,31,10,14,8.60
2020,01,31,10,15,8.70
2020,01,31,10,16,8.70
2020,01,31,10,17,8.80
2020,01,31,10,18,8.80
2020,01,31,10,19,8.80
2020,01,31,10,20,8.80
2020,01,31,10,21,8.80
2020,01,31,10,22,8.80
2020,01,31,10,23,8.70
2020,01,31,10,24,8.70
2020,01,31,10,25,8.70
2020,01,31,10,26,8.80
2020,01,31,10,27,8.80
2020,01,31,10,28,8.80
2020,01,31,10,29,8.80
2020,01,31,10,30,8.80
2020,01,31,10,31,8.80
2020,01,31,10,32,8.80
2020,01,31,10,33,8.80
2020,01,31,10,34,8.80
2020,01,31,10,35,8.80
2020,01,31,10,36,8.80
2020,01,31,10,37,8.80
2020,01,31,10,38,8.90
2020,01,31,10,39,8.90
2020,01,31,10,40,8.90
2020,01,31,10,41,8.90
2020,01,31,10,42,8.90
2020,01,31,10,43,8.90
2020,01,31,10,44,9.00
2020,01,31,10,45,9.00
2020,01,31,10,46,9.00
2020,01,31,10,47,9.00
2020,01,31,10,48,9.00
2020,01,31,10,49,9.10
2020,01,31,10,50,9.00
2020,01,31,10,51,9.10
2020,01,31,10,52,9.10
2020,01,31,10,53,9.10
2020,01,31,10,54,9.10
2020,01,31,10,55,9.10
2020,01,31,10,56,9.10
2020,01,31,10,57,9.10
2020,01,31,10,58,9.10
2020,01,31,10,59,9.10
2020,01,31,11,00,9.10
2020,01,31,11,01,9.10
2020,01,31,11,02,9.10
2020,01,31,11,03,9.10
2020,01,31,11,04,9.10
2020,01,31,11,05,9.10
2020,01,31,11,06,9.10
2020,01,31,11,07,9.10
2020,01,31,11,08,9.10
2020,01,31,11,09,9.10
2020,01,31,11,10,9.10
2020,01,31,11,11,9.10
2020,01,31,11,12,9.10
2020,01,31,11,13,9.10
2020,01,31,11,14,9.10
2020,01,31,11,15,9.10
2020,01,31,11,16,9.10
2020,01,31,11,17,9.10
2020,01,31,11,18,9.10
2020,01,31,11,19,9.10
2020,01,31,11,20,9.10
2020,01,31,11,21,9.10
2020,01,31,11,22,9.00
2020,01,31,11,23,9.10
2020,01,31,11,24,9.10
2020,01,31,11,25,9.10
2020,01,31,11,26,9.10
2020,01,31,11,27,9.10
2020,01,31,11,28,9.10
2020,01,31,11,29,9.10
2020,01,31,11,30,9.10
2020,01,31,11,31,9.10
2020,01,31,11,32,9.10
2020,01,31,11,33,9.20
2020,01,31,11,34,9.20
2020,01,31,11,35,9.20
2020,01,31,11,36,9.20
2020,01,31,11,37,9.20
2020,01,31,11,38,9.20
2020,01,31,11,39,9.20
2020,01,31,11,40,9.30
2020,01,31,11,41,9.30
2020,01,31,11,42,9.30
2020,01,31,11,43,9.40
2020,01,31,11,44,9.40
2020,01,31,11,45,9.40
2020,01,31,11,46,9.40
2020,01,31,11,47,9.50
2020,01,31,11,48,9.50
2020,01,31,11,49,9.50
2020,01,31,11,50,9.50
2020,01,31,11,51,9.60
2020,01,31,11,52,9.60
2020,01,31,11,53,9.60
2020,01,31,11,54,9.60
2020,01,31,11,55,9.70
2020,01,31,11,56,9.70
2020,01,31,11,57,9.70
2020,01,31,11,58,9.70
2020,01,31,11,59,9.80
2020,01,31,12,00,9.80
2020,01,31,12,01,9.90
2020,01,31,12,02,10.00
2020,01,31,12,03,10.10
2020,01,31,12,04,10.20
2020,01,31,12,05,10.30
2020,01,31,12,06,10.60
2020,01,31,12,07,10.80
2020,01,31,12,08,10.80
2020,01,31,12,09,10.80
2020,01,31,12,10,10.90
2020,01,31,12,11,11.20
2020,01,31,12,12,11.50
2020,01,31,12,13,11.70
2020,01,31,12,14,11.90
2020,01,31,12,15,12.00
2020,01,31,12,16,12.10
2020,01,31,12,17,12.20
2020,01,31,12,18,12.20
2020,01,31,12,19,12.30
2020,01,31,12,20,12.30
2020,01,31,12,21,12.40
2020,01,31,12,22,12.50
2020,01,31,12,23,12.60
2020,01,31,12,24,12.70
2020,01,31,12,25,12.70
2020,01,31,12,26,12.80
2020,01,31,12,27,13.00
2020,01,31,12,28,13.00
2020,01,31,12,29,13.10
2020,01,31,12,30,13.30
2020,01,31,12,31,13.40
2020,01,31,12,32,13.40
2020,01,31,12,33,13.40
2020,01,31,12,34,13.50
2020,01,31,12,35,13.70
2020,01,31,12,36,13.70
2020,01,31,12,37,13.70
2020,01,31,12,38,13.70
2020,01,31,12,39,13.90
2020,01,31,12,40,14.00
2020,01,31,12,41,14.10
2020,01,31,12,42,14.30
2020,01,31,12,43,14.40
2020,01,31,12,44,14.50
2020,01,31,12,45,14.50
2020,01,31,12,46,14.40
2020,01,31,12,47,14.40
2020,01,31,12,48,14.40
2020,01,31,12,49,14.30
2020,01,31,12,50,14.20
2020,01,31,12,51,14.20
2020,01,31,12,52,14.10
2020,01,31,12,53,14.10
2020,01,31,12,54,14.20
2020,01,31,12,55,14.20
2020,01,31,12,56,14.40
2020,01,31,12,57,14.50
2020,01,31,12,58,14.70
2020,01,31,12,59,14.70
2020,01,31,13,00,14.80
2020,01,31,13,01,14.80
2020,01,31,13,02,14.80
2020,01,31,13,03,14.70
2020,01,31,13,04,14.70
2020,01,31,13,05,14.60
2020,01,31,13,06,14.60
2020,01,31,13,07,14.60
2020,01,31,13,08,14.60
2020,01,31,13,09,14.60
2020,01,31,13,10,14.60
2020,01,31,13,11,14.70
2020,01,31,13,12,14.60
2020,01,31,13,13,14.60
2020,01,31,13,14,14.60
2020,01,31,13,15,14.70
2020,01,31,13,16,14.70
2020,01,31,13,17,14.70
2020,01,31,13,18,14.50
2020,01,31,13,19,14.40
2020,01,31,13,20,14.50
2020,01,31,13,21,14.60
2020,01,31,13,22,14.70
2020,01,31,13,23,14.80
2020,01,31,13,24,14.80
2020,01,31,13,25,14.80
2020,01,31,13,26,14.80
2020,01,31,13,27,14.80
2020,01,31,13,28,14.80
2020,01,31,13,29,14.80
2020,01,31,13,30,14.70
2020,01,31,13,31,14.70
2020,01,31,13,32,14.70
2020,01,31,13,33,14.70
2020,01,31,13,34,14.70
2020,01,31,13,35,14.70
2020,01,31,13,36,14.70
2020,01,31,13,37,14.60
2020,01,31,13,38,14.50
2020,01,31,13,39,14.30
2020,01,31,13,40,14.40
2020,01,31,13,41,14.40
2020,01,31,13,42,14.40
2020,01,31,13,43,14.40
2020,01,31,13,44,14.30
2020,01,31,13,45,14.30
2020,01,31,13,46,14.20
2020,01,31,13,47,14.10
2020,01,31,13,48,14.10
2020,01,31,13,49,14.00
2020,01,31,13,50,13.90
2020,01,31,13,51,13.80
2020,01,31,13,52,13.70
2020,01,31,13,53,13.60
2020,01,31,13,54,13.40
2020,01,31,13,55,13.40
2020,01,31,13,56,13.20
2020,01,31,13,57,13.20
2020,01,31,13,58,13.20
2020,01,31,13,59,13.10
2020,01,31,14,00,13.10
2020,01,31,14,01,13.00
2020,01,31,14,02,13.00
2020,01,31,14,03,12.90
2020,01,31,14,04,12.80
2020,01,31,14,05,12.80
2020,01,31,14,06,12.80
2020,01,31,14,07,12.80
2020,01,31,14,08,12.70
2020,01,31,14,09,12.70
2020,01,31,14,10,12.70
2020,01,31,14,11,12.70
2020,01,31,14,12,12.70
2020,01,31,14,13,12.70
2020,01,31,14,14,12.70
2020,01,31,14,15,12.60
2020,01,31,14,16,12.60
2020,01,31,14,17,12.60
2020,01,31,14,18,12.60
2020,01,31,14,19,12.60
2020,01,31,14,20,12.50
2020,01,31,14,21,12.40
2020,01,31,14,22,12.40
2020,01,31,14,23,12.30
2020,01,31,14,24,12.20
2020,01,31,14,25,12.20
2020,01,31,14,26,12.20
2020,01,31,14,27,12.10
2020,01,31,14,28,12.10
2020,01,31,14,29,12.10
2020,01,31,14,30,12.10
2020,01,31,14,31,12.10
2020,01,31,14,32,12.10
2020,01,31,14,33,12.10
2020,01,31,14,34,12.10
2020,01,31,14,35,12.10
2020,01,31,14,36,12.10
2020,01,31,14,37,12.10
2020,01,31,14,38,12.10
2020,01,31,14,39,12.00
2020,01,31,14,40,12.00
2020,01,31,14,41,12.00
2020,01,31,14,42,12.00
2020,01,31,14,43,12.00
2020,01,31,14,44,12.10
2020,01,31,14,45,12.10
2020,01,31,14,46,12.10
2020,01,31,14,47,12.10
2020,01,31,14,48,12.10
2020,01,31,14,49,12.10
2020,01,31,14,50,12.00
2020,01,31,14,51,12.00
2020,01,31,14,52,12.00
2020,01,31,14,53,12.00
2020,01,31,14,54,12.00
2020,01,31,14,55,11.90
2020,01,31,14,56,11.90
2020,01,31,14,57,11.90
2020,01,31,14,58,11.90
2020,01,31,14,59,11.90
2020,01,31,15,00,11.90
2020,01,31,15,01,11.90
2020,01,31,15,02,11.90
2020,01,31,15,03,11.90
2020,01,31,15,04,11.90
2020,01,31,15,05,11.90
2020,01,31,15,06,11.90
2020,01,31,15,07,11.90
2020,01,31,15,08,11.90
2020,01,31,15,09,11.90
2020,01,31,15,10,12.00
2020,01,31,15,11,12.10
2020,01,31,15,12,12.10
2020,01,31,15,13,12.10
2020,01,31,15,14,12.20
2020,01,31,15,15,12.20
2020,01,31,15,16,12.20
2020,01,31,15,17,12.20
2020,01,31,15,18,12.20
2020,01,31,15,19,12.20
2020,01,31,15,20,12.30
2020,01,31,15,21,12.30
2020,01,31,15,22,12.40
2020,01,31,15,23,12.40
2020,01,31,15,24,12.40
2020,01,31,15,25,12.50
2020,01,31,15,26,12.60
2020,01,31,15,27,12.60
2020,01,31,15,28,12.60
2020,01,31,15,29,12.60
2020,01,31,15,30,12.60
2020,01,31,15,31,12.60
2020,01,31,15,32,12.80
2020,01,31,15,33,12.80
2020,01,31,15,34,12.80
2020,01,31,15,35,12.90
2020,01,31,15,36,13.10
2020,01,31,15,37,13.30
2020,01,31,15,38,13.30
2020,01,31,15,39,13.50
2020,01,31,15,40,13.60
2020,01,31,15,41,13.70
2020,01,31,15,42,13.70
2020,01,31,15,43,13.60
2020,01,31,15,44,13.60
2020,01,31,15,45,13.50
2020,01,31,15,46,13.50
2020,01,31,15,47,13.60
2020,01,31,15,48,13.60
2020,01,31,15,49,13.50
2020,01,31,15,50,13.60
2020,01,31,15,51,13.60
2020,01,31,15,52,13.70
2020,01,31,15,53,13.80
2020,01,31,15,54,13.80
2020,01,31,15,55,13.90
2020,01,31,15,56,14.00
2020,01,31,15,57,14.00
2020,01,31,15,58,14.10
2020,01,31,15,59,14.10
2020,01,31,16,00,14.20
2020,01,31,16,01,14.20
2020,01,31,16,02,14.10
2020,01,31,16,03,14.10
2020,01,31,16,04,14.00
2020,01,31,16,05,14.10
2020,01,31,16,06,14.20
2020,01,31,16,07,14.30
2020,01,31,16,08,14.30
2020,01,31,16,09,14.30
2020,01,31,16,10,14.30
2020,01,31,16,11,14.30
2020,01,31,16,12,14.30
2020,01,31,16,13,14.30
2020,01,31,16,14,14.30
2020,01,31,16,15,14.30
2020,01,31,16,16,14.30
2020,01,31,16,17,14.20
2020,01,31,16,18,14.10
2020,01,31,16,19,14.00
2020,01,31,16,20,14.00
2020,01,31,16,21,13.90
2020,01,31,16,22,13.90
2020,01,31,16,23,13.90
2020,01,31,16,24,13.80
2020,01,31,16,25,13.80
2020,01,31,16,26,13.80
2020,01,31,16,27,13.90
2020,01,31,16,28,14.00
2020,01,31,16,29,14.10
2020,01,31,16,30,14.30
2020,01,31,16,31,14.30
2020,01,31,16,32,14.20
2020,01,31,16,33,14.00
2020,01,31,16,34,13.90
2020,01,31,16,35,13.80
2020,01,31,16,36,13.70
2020,01,31,16,37,13.80
2020,01,31,16,38,13.80
2020,01,31,16,39,13.80
2020,01,31,16,40,13.80
2020,01,31,16,41,13.80
2020,01,31,16,42,13.80
2020,01,31,16,43,13.80
2020,01,31,16,44,13.80
2020,01,31,16,45,13.80
2020,01,31,16,46,13.90
2020,01,31,16,47,13.90
2020,01,31,16,48,13.90
2020,01,31,16,49,13.90
2020,01,31,16,50,13.90
2020,01,31,16,51,13.80
2020,01,31,16,52,13.70
2020,01,31,16,53,13.70
2020,01,31,16,54,13.60
2020,01,31,16,55,13.60
2020,01,31,16,56,13.60
2020,01,31,16,57,13.50
2020,01,31,16,58,13.40
2020,01,31,16,59,13.40
2020,01,31,17,00,13.40
2020,01,31,17,01,13.40
2020,01,31,17,02,13.50
2020,01,31,17,03,13.50
2020,01,31,17,04,13.50
2020,01,31,17,05,13.60
2020,01,31,17,06,13.60
2020,01,31,17,07,13.70
2020,01,31,17,08,13.60
2020,01,31,17,09,13.60
2020,01,31,17,10,13.60
2020,01,31,17,11,13.60
2020,01,31,17,12,13.60
2020,01,31,17,13,13.50
2020,01,31,17,14,13.50
2020,01,31,17,15,13.40
2020,01,31,17,16,13.40
2020,01,31,17,17,13.30
2020,01,31,17,18,13.40
2020,01,31,17,19,13.40
2020,01,31,17,20,13.50
2020,01,31,17,21,13.60
2020,01,31,17,22,13.60
2020,01,31,17,23,13.60
2020,01,31,17,24,13.60
2020,01,31,17,25,13.50
2020,01,31,17,26,13.50
2020,01,31,17,27,13.50
2020,01,31,17,28,13.50
2020,01,31,17,29,13.40
2020,01,31,17,30,13.40
2020,01,31,17,31,13.30
2020,01,31,17,32,13.30
2020,01,31,17,33,13.20
2020,01,31,17,34,13.20
2020,01,31,17,35,13.20
2020,01,31,17,36,13.20
2020,01,31,17,37,13.20
2020,01,31,17,38,13.20
2020,01,31,17,39,13.20
2020,01,31,17,40,13.10
2020,01,31,17,41,13.10
2020,01,31,17,42,13.10
2020,01,31,17,43,13.00
2020,01,31,17,44,13.00
2020,01,31,17,45,13.00
2020,01,31,17,46,12.90
2020,01,31,17,47,12.90
2020,01,31,17,48,12.80
2020,01,31,17,49,12.80
2020,01,31,17,50,12.80